Janesville, WI

4:22 AM CDT on September 21, 2017 (GMT -0500)
Rock County

Weather History for KJVL - August, 2014

Change the Weather History Date:

Sunday, August 3, 2014

  Actual Average Record
Temperature  
Mean Temperature 74 °F -  
Max Temperature 87 °F 77 °F 96 °F (1988)
Min Temperature 62 °F 59 °F 53 °F (2000)
Cooling Degree Days 10    
Growing Degree Days 24 (Base 50)    
Moisture  
Dew Point 60 °F    
Average Humidity 69    
Maximum Humidity 94    
Minimum Humidity 31    
Precipitation  
Precipitation 0.00 in - - ()
Sea Level Pressure  
Sea Level Pressure 30.11 in    
Wind  
Wind Speed 2 mph (West)    
Max Wind Speed 14 mph    
Max Gust Speed 20 mph    
Visibility 8 miles    
Events Fog    
Averages and records for this station are not official NWS values.
T = Trace of Precipitation, MM = Missing Value Source: NWS Daily Summary

Daily Weather History Graph

Daily Weather History Graph

Search for Another Location

Airport or City:

Trip Planner

Search our weather history database for the weather conditions in past years. The results will help you decide how hot, cold, wet, or windy it might be!

Date:

Astronomy

Aug. 03, 2014 Rise Set
Actual Time 5:50 AM CDT 8:13 PM CDT
Civil Twilight 5:18 AM CDT 8:45 PM CDT
Nautical Twilight 4:38 AM CDT 9:24 PM CDT
Astronomical Twilight 3:54 AM CDT 10:08 PM CDT
Moon 1:21 PM CDT (8/3) 11:59 PM CDT (8/3)
Length of Visible Light 15h 27m
Length of Day
14h 23m
Waxing Crescent, 47% of the Moon is Illuminated
Aug 3
Waxing Crescent
Aug 3
First Quarter
Aug 10
Full
Aug 17
Last Quarter
Aug 25
New

Hourly Weather History & Observations

Time (CDT) Temp. Heat Index Dew Point Humidity Pressure Visibility Wind Dir Wind Speed Gust Speed Precip Events Conditions
12:15 AM 68.0 °F - 62.6 °F 83% 30.13 in 10.0 mi Calm Calm - N/A   Overcast
12:55 AM 68.0 °F - 62.6 °F 83% 30.13 in 10.0 mi Calm Calm - N/A   Scattered Clouds
1:35 AM 66.2 °F - 62.6 °F 88% 30.12 in 10.0 mi Calm Calm - N/A   Clear
1:55 AM 64.4 °F - 60.8 °F 88% 30.12 in 7.0 mi Calm Calm - N/A   Clear
2:15 AM 64.4 °F - 60.8 °F 88% 30.12 in 7.0 mi Calm Calm - N/A   Clear
2:35 AM 64.4 °F - 60.8 °F 88% 30.12 in 7.0 mi Calm Calm - N/A   Clear
3:15 AM 64.4 °F - 60.8 °F 88% 30.12 in 7.0 mi Calm Calm - N/A   Clear
3:55 AM 64.4 °F - 60.8 °F 88% 30.12 in 7.0 mi Calm Calm - N/A   Clear
4:15 AM 62.6 °F - 60.8 °F 94% 30.12 in 7.0 mi Calm Calm - N/A   Clear
4:35 AM 62.6 °F - 60.8 °F 94% 30.11 in 7.0 mi Calm Calm - N/A   Clear
4:55 AM 62.6 °F - 60.8 °F 94% 30.12 in 3.0 mi Calm Calm - N/A   Clear
5:15 AM 62.6 °F - 60.8 °F 94% 30.12 in 0.5 mi Calm Calm - N/A Fog Fog
5:35 AM 62.6 °F - 60.8 °F 94% 30.12 in 2.5 mi Calm Calm - N/A   Clear
5:45 AM 62.6 °F - 60.8 °F 94% 30.13 in 3.0 mi Calm Calm - N/A   Clear
6:45 AM 64.4 °F - 62.6 °F 94% 30.14 in 5.0 mi Calm Calm - N/A   Mist
7:45 AM 68.0 °F - 64.4 °F 88% 30.14 in 7.0 mi Calm Calm - N/A   Clear
8:45 AM 73.4 °F - 62.6 °F 69% 30.15 in 7.0 mi Calm Calm - N/A   Clear
9:45 AM 78.8 °F - 62.6 °F 57% 30.15 in 10.0 mi WNW 6.9 mph - N/A   Clear
10:45 AM 84.2 °F 83.8 °F 59.0 °F 42% 30.14 in 10.0 mi West 6.9 mph - N/A   Scattered Clouds
11:45 AM 84.2 °F 83.5 °F 57.2 °F 40% 30.14 in 10.0 mi West 9.2 mph - N/A   Scattered Clouds
12:45 PM 86.0 °F 84.5 °F 55.4 °F 35% 30.12 in 10.0 mi West 11.5 mph - N/A   Scattered Clouds
1:45 PM 87.8 °F 86.1 °F 55.4 °F 33% 30.10 in 10.0 mi WSW 11.5 mph - N/A   Scattered Clouds
2:45 PM 87.8 °F 86.1 °F 55.4 °F 33% 30.09 in 10.0 mi West 11.5 mph 19.6 mph N/A   Scattered Clouds
3:45 PM 87.8 °F 85.7 °F 53.6 °F 31% 30.08 in 10.0 mi West 11.5 mph 17.3 mph N/A   Scattered Clouds
4:45 PM 87.8 °F 86.1 °F 55.4 °F 33% 30.06 in 10.0 mi West 13.8 mph - N/A   Mostly Cloudy
5:45 PM 84.2 °F 83.0 °F 55.4 °F 37% 30.07 in 10.0 mi West 9.2 mph - N/A   Scattered Clouds
6:45 PM 82.4 °F 82.0 °F 57.2 °F 42% 30.07 in 10.0 mi West 6.9 mph - N/A   Scattered Clouds
7:45 PM 78.8 °F - 60.8 °F 54% 30.07 in 10.0 mi Variable 4.6 mph - N/A   Mostly Cloudy
8:45 PM 77.0 °F - 62.6 °F 61% 30.07 in 10.0 mi Calm Calm - N/A   Scattered Clouds
9:15 PM 75.2 °F - 60.8 °F 61% 30.07 in 10.0 mi Calm Calm - N/A   Scattered Clouds
9:35 PM 73.4 °F - 60.8 °F 65% 30.08 in 10.0 mi Calm Calm - N/A   Scattered Clouds
9:55 PM 73.4 °F - 60.8 °F 65% 30.08 in 10.0 mi Calm Calm - N/A   Clear
10:15 PM 71.6 °F - 60.8 °F 69% 30.08 in 10.0 mi Calm Calm - N/A   Clear
10:35 PM 71.6 °F - 60.8 °F 69% 30.09 in 10.0 mi Calm Calm - N/A   Clear
10:55 PM 69.8 °F - 60.8 °F 73% 30.08 in 10.0 mi Calm Calm - N/A   Clear
11:15 PM 69.8 °F - 60.8 °F 73% 30.09 in 10.0 mi Calm Calm - N/A   Clear
11:35 PM 69.8 °F - 60.8 °F 73% 30.09 in 10.0 mi SSW 3.5 mph - N/A   Clear
11:55 PM 68.0 °F - 60.8 °F 78% 30.10 in 10.0 mi Calm Calm - N/A   Clear